Location: Unspecified
(0.0000°N, 0.0000°E)
Time: 03:18:57
(UTC+00:00)

N. Korean satellite - Pass Details

Date: 29 September 2022
Orbit: 427 x 468 km, 97.3° (Epoch: 25 September)

Event Time Altitude Azimuth Distance (km) Brightness Sun altitude
Rises 04:40:28 0° 18° (NNE) 2,379 10.3 -17.5°
Reaches altitude 10° 04:42:29 10° 23° (NNE) 1,519 9.3 -17.0°
Maximum altitude 04:45:39 54° 101° (E) 528 7.1 -16.2°
Drops below altitude 10° 04:48:53 10° 179° (S) 1,541 9.1 -15.4°
Sets 04:50:56 0° 184° (S) 2,418 10.1 -14.9°
